Regional Weather Roundup
Issued by NWS

Home | Current Version | Previous Version | Graphics & Text | Print | Product List | Glossary On
Versions: 1 2 3 4 5 6 7 8 9 10 11 12 13 14 15 16 17 18 19 20 21 22 23 24 25 26 27 28 29 30 31 32 33 34 35 36 37 38 39 40 41 42 43 44 45 46 47 48 49 50
000
ASUS43 KLMK 240402
RWRKY
KENTUCKY REGIONAL WEATHER ROUNDUP
NATIONAL WEATHER SERVICE LOUISVILLE KY
1200 AM EDT FRI OCT 24 2014

NOTE "FAIR" INDICATES FEW OR NO CLOUDS BELOW 12,000 FEET
WITH NO SIGNIFICANT WEATHER AND/OR OBSTRUCTIONS TO VISIBILITY.

KYZ001>023-026-027-061>063-070>075-240500-
WESTERN AND SOUTH CENTRAL KENTUCKY

CITY           SKY/WX    TMP DP  RH WIND       PRES   REMARKS
PADUCAH        PTCLDY    44  42  93 CALM      30.13S
HENDERSON      CLOUDY   N/A N/A N/A CALM      30.13S
OWENSBORO      CLOUDY    50  46  85 CALM      30.13F
HOPKINSVILLE   CLOUDY    49  47  93 SW7       30.14S
BOWLING GREEN  CLOUDY    49  45  86 CALM      30.13F
GLASGOW        NOT AVBL
$$

KYZ024-025-028>034-038-045-046-053-240500-
NORTH CENTRAL KENTUCKY

CITY           SKY/WX    TMP DP  RH WIND       PRES   REMARKS
LOUISVILLE/SDF MOCLDY    50  44  80 VRB7      30.12S
LOUISVILLE/LOU MOCLDY    48  43  82 CALM      30.13S
FORT KNOX      CLOUDY    44  42  90 N1        30.10F
$$

KYZ035>037-039>044-047>052-055>060-089>105-240500-
NORTHEAST KENTUCKY

CITY           SKY/WX    TMP DP  RH WIND       PRES   REMARKS
LEXINGTON      CLOUDY    47  41  80 S5        30.12F
COVINGTON      CLOUDY    47  40  76 CALM      30.12S
FRANKFORT      CLOUDY    44  42  93 CALM      30.12F
$$

KYZ054-064>069-076>088-106>120-240500-
SOUTHEAST KENTUCKY

CITY           SKY/WX    TMP DP  RH WIND       PRES   REMARKS
JACKSON        PTCLDY    47  40  76 CALM      30.13S
LONDON         MOCLDY    45  41  86 CALM      30.12F
SOMERSET       CLOUDY    43  43 100 CALM      30.14F
MIDDLESBORO    MOCLDY    43  42  96 CALM      30.14S
MONTICELLO     PTCLDY    40  39  96 CALM      30.14F FOG
$$




USA.gov is the U.S. government's official web portal to all federal, state and local government web resources and services.